Preview of NWS' New Version of Forecast
This preview is not operational and should not be used for support decisions.

Regional Weather Roundup (RWR)

Issued by Charleston, SC (CHS)

                            
000
ASUS42 KCHS 200711
RWRCHS

Regional Weather Roundup
National Weather Service Charleston SC
300 AM EDT MON MAY 20 2019

NOTE: "fair" indicates few or no clouds below 12,000 feet with no
significant weather and/or obstructions to visibility.

Not all stations are quality controlled. Use data with caution,
especially dewpoint observations.

SCZ027-030-031-034>040-042>050-200800-
...Southeast South Carolina...
  
CITY           SKY/WX    TMP DP  RH WIND       PRES   REMARKS
N Charleston   FAIR      70  67  90 S5        30.05S                  
Waterfront Prk   N/A     75  71  87 S6        29.89F                  
Mount Pleasant   N/A     68  66  94 CALM      30.05S                  
Johns Island   CLOUDY    72  70  94 CALM      30.05S                  
Pinopolis        N/A     70  70 100 CALM      29.97S                  
Moncks Corner  FAIR      64  64 100 CALM      30.05S                  
Summerville    FAIR      66  64  94 CALM      30.06S                  
Beaufort MCAS  MOCLDY    76  72  87 S5        30.04S                  
Beaufort Arpt  FAIR      72  70  94 S3        30.04S                  
Hilton Head Is FAIR      75  72  88 S7G14     30.05S                  
Walterboro     FAIR      68  66  94 CALM      30.06S                  
Allendale      FAIR      72  70  94 CALM      30.04S                  

...Southern Midlands and Pee Dee...
  
CITY           SKY/WX    TMP DP  RH WIND       PRES   REMARKS
Georgetown     FAIR      63  63 100 CALM      30.06F                  
Kingstree      FAIR      68  66  94 CALM      30.05F                  
Orangeburg     FAIR      69  67  93 CALM      30.05S                  
Barnwell       PTSUNNY   72  70  94 SE3       30.05S                  
Aiken          PTSUNNY   70  70 100 S9        30.07F                  
Manning        FAIR      72  68  88 S5        30.05S                  
Columbia       CLOUDY    73  67  81 S7        30.03S                  
Sumter         FAIR      70  68  93 S3        30.04F                  
Florence       FAIR      72  67  84 S3        30.05S                  
Myrtle Beach   FAIR      74  67  78 S8        30.05F                  
N Myrtle Beach FAIR      74  68  81 S10       30.05S                  

$$
 
GAZ063-065-086>088-099>101-113>116-118-119-134>141-150-200800-
...Southeast Georgia...
  
CITY           SKY/WX    TMP DP  RH WIND       PRES   REMARKS
Savannah Arpt  FAIR      74  71  91 S5        30.04S                  
Hunter AAF     FAIR      75  70  86 S3        30.02S                  
Fort Stewart   FAIR      70  69  97 CALM      30.02S                  
Statesboro     FAIR      70  68  93 CALM      30.04S                  
Sylvania       FAIR      71  70  96 CALM      30.05S FOG              
Claxton        FOG       69  69  98 CALM      30.05R VSB 3/4          
Millen         FAIR      70  69  96 S3        30.04S                  

...CSRA, Central and far Southeast Georgia...
  
CITY           SKY/WX    TMP DP  RH WIND       PRES   REMARKS
Thomson        FAIR      72  69  89 SW5       30.03S                  
Augusta-Bush   FAIR      72  70  93 S5        30.03S                  
Augusta-Daniel FAIR      73  68  84 S7        30.04S                  
Swainsboro     FAIR      72  70  94 S6        30.05S                  
Vidalia        FAIR      72  66  83 CALM      30.05R                  
Eastman        FAIR      66  64  93 CALM      30.05S                  
Hazlehurst     FAIR      73  68  85 CALM      30.03S                  
Alma           FAIR      68  65  90 CALM      30.03S FOG              
Waycross       FAIR      72  67  84 S6        30.04                   
Jesup          NOT AVBL                                               
Baxley         FAIR      68  68 100 CALM      30.04R                  
Brunswick      FAIR      75  71  88 S6        30.03S                  
Saint Simons   MOCLDY    78  71  79 S9        30.03S                  

$$

SCZ027-028-034-036>038-045-046-048>050-GAZ119-141-200800-
...Lake and Supplemental Coastal Observations...
  
STATION/POSITION TIME  TEMP    WIND        PRES    WAVE   SWELL
                       AIR SEA DIR/SP/G            HT/PER HT/PER/DIR
                 (UTC) (F)     (DEG/KT/KT) (MB)    (FT/S) (FT/S/D)
Winyah Bay       0545   73     190/  4     1017.0
Lake Murray      0620   74     180/ 11/ 14 1016.3
ACE Basin NERRS  0545   76     170/  1     1017.0
Fort Pulaski     0636   76 77  170/  4/  7 1017.6F
Sapelo Island    0600   76     170/ 10     1017.0

$$

ANZ835-935-AMZ111-154-330-350-352-354-370-450-454-472-200800-
...C-MAN and Buoy Observations...
  
STATION/POSITION TIME  TEMP    WIND        PRES    WAVE   SWELL
                       AIR SEA DIR/SP/G            HT/PER HT/PER/DIR
                 (UTC) (F)     (DEG/KT/KT) (MB)    (FT/S) (FT/S/D)
Buoy 41004       0650      76  180/  8/ 10 1018.1F   2/ 6   2/150/ 6
Buoy 41008       0650   77 77  170/ 10/ 12 1017.0S   2/ 6   2/120/ 6
Folly Beach CMAN 0600   76     160/ 11/ 12 1018.1F
Capers Nearshore 0608   76 76  190/ 10/ 14 1017.6F
Fripp Nearshore  NOT AVBL

  
STATION/POSITION TIME  TEMP    WIND        PRES    WAVE   SWELL
                       AIR SEA DIR/SP/G            HT/PER HT/PER/DIR
                 (UTC) (F)     (DEG/KT/KT) (MB)    (FT/S) (FT/S/D)
5E St. Marys GA  0630      78                N/A     3/ 4
Frying Pan Buoy  0650   76     190/ 12/ 14 1018.4F   2/ 6   2/160/ 8
Buoy 41025       NOT AVBL
Cape Lookout NC  0600   73     240/  5/  8 1018.4F
Buoy 41002       NOT AVBL
Buoy 41010       0650   77 78  130/ 12/ 16 1017.4F   3/ 6   2/140/14
St Augustine FL  0700   75 81  190/  6/  6 1016.8F


$$